Tesla Debt to Equity Ratio 2010-2022 | TSLA

Current and historical debt to equity ratio values for Tesla (TSLA) over the last 10 years. The debt/equity ratio can be defined as a measure of a company's financial leverage calculated by dividing its long-term debt by stockholders' equity. Tesla debt/equity for the three months ending December 31, 2022 was 0.04.
Tesla Debt/Equity Ratio Historical Data
Date Long Term Debt Shareholder's Equity Debt to Equity Ratio
2022-12-31 $36.85B $45.49B 0.81
2022-09-30 $33.72B $40.70B 0.83
2022-06-30 $31.28B $37.24B 0.84
2022-03-31 $31.09B $34.95B 0.89
2021-12-31 $31.12B $31.02B 1.00
2021-09-30 $29.95B $27.89B 1.07
2021-06-30 $29.50B $25.65B 1.15
2021-03-31 $29.11B $23.86B 1.22
2020-12-31 $29.07B $23.08B 1.26
2020-09-30 $28.80B $16.89B 1.71
2020-06-30 $27.41B $10.72B 2.56
2020-03-31 $27.21B $10.04B 2.71
2019-12-31 $26.84B $7.47B 3.60
2019-09-30 $25.91B $6.88B 3.77
2019-06-30 $25.30B $6.57B 3.85
2019-03-31 $23.45B $5.47B 4.29
2018-12-31 $23.98B $5.76B 4.17
2018-09-30 $23.96B $5.30B 4.52
2018-06-30 $23.18B $4.73B 4.90
2018-03-31 $21.96B $5.32B 4.13
2017-12-31 $23.42B $5.24B 4.47
2017-09-30 $22.33B $5.78B 3.87
2017-06-30 $19.83B $6.22B 3.19
2017-03-31 $19.26B $5.80B 3.32
2016-12-31 $17.13B $5.54B 3.09
2016-09-30 $9.91B $2.68B 3.70
2016-06-30 $9.35B $2.52B 3.71
2016-03-31 $8.22B $0.97B 8.47
2015-12-31 $6.98B $1.08B 6.45
2015-09-30 $6.23B $1.32B 4.74
2015-06-30 $5.75B $0.72B 8.04
2015-03-31 $5.29B $0.83B 6.41
2014-12-31 $4.92B $0.91B 5.40
2014-09-30 $4.48B $0.96B 4.68
2014-06-30 $4.10B $0.95B 4.31
2014-03-31 $3.59B $0.91B 3.93
2013-12-31 $1.75B $0.67B 2.62
2013-09-30 $1.60B $0.56B 2.84
2013-06-30 $1.26B $0.63B 2.00
2013-03-31 $0.98B $0.17B 5.79
2012-12-31 $0.99B $0.13B 7.94
2012-09-30 $0.84B $-0.03B -30.03
2012-06-30 $0.72B $0.06B 11.49
2012-03-31 $0.61B $0.15B 3.95
2011-12-31 $0.49B $0.22B 2.18
2011-09-30 $0.41B $0.29B 1.38
2011-06-30 $0.30B $0.35B 0.85
2011-03-31 $0.24B $0.17B 1.43
2010-12-31 $0.18B $0.21B 0.87
2010-09-30 $0.14B $0.22B 0.64
2010-06-30 $0.46B $-0.31B -1.48
2010-03-31 $0.00B $0.00B 0.00
2009-12-31 $0.00B 0.00
2009-09-30 $0.00B $0.00B 0.00
2009-06-30 $0.00B $0.00B 0.00
Sector Industry Market Cap Revenue
Auto/Tires/Trucks Auto Manufacturers - Domestic $546.986B $81.462B
Tesla is the market leader in battery-powered electric car sales in the United States, with roughly 70% market share. The company's flagship Model 3 is the best-selling EV model in the United States. Tesla, which has managed to garner the reputation of a gold standard over the years, is now a far bigger entity that what it started off since its IPO in 2010, with its market cap crossing $1 trillion for the first time in October 2021.? The EV king's market capitalization is more than the combined value of legacy automakers including Toyota, Volkswagen, Daimler, General Motors and Ford.Over the years, Tesla has shifted from developing niche products for affluent buyers to making more affordable EVs for the masses. The firm's three-pronged business model approach of direct sales, servicing, and charging its EVs sets it apart from other carmakers. Tesla, which is touted as the clean energy revolutionary automaker, is much more than just a car manufacturer.
Stock Name Country Market Cap PE Ratio
General Motors (GM) United States $55.862B 5.17
Ford Motor (F) United States $54.317B 8.34
Harley-Davidson (HOG) United States $6.729B 9.51
Polaris (PII) United States $6.656B 11.02
IAA (IAA) United States $5.582B 17.83
Fisker (FSR) United States $2.324B 0.00
Lion Electric (LEV) Canada $0.510B 0.00
Volta (VLTA) United States $0.145B 0.00
Lightning EMotors (ZEV) United States $0.078B 0.00
Bird Global (BRDS) United States $0.067B 0.00